Wind_Speed
4 4 4 3 2 2 1 2 2 2 2 2 3 4 5 6 6 6 6 5 6 6 6 6 6 6 6 7 6 6 6 6 7 7 7 7 7 8 9 9 9 7 8 9 9 9 9 9 9
4 4 3 2 2 1 1 2 2 2 2 3 3 4 5 6 6 6 6 6 6 6 6 6 6 7 6 6 6 6 6 6 6 7 7 7 7 8 9 9 9 8 8 8 8 9 10 10 10
4 3 2 1 1 1 1 1 2 2 3 3 4 5 5 6 6 6 7 7 7 7 6 6 6 6 6 6 5 5 5 6 7 7 7 8 8 8 9 8 8 8 7 8 8 9 10 11 11
4 3 1 1 1 2 2 3 3 2 3 4 4 5 6 6 6 6 6 6 6 6 6 6 6 6 6 6 6 6 6 5 6 6 7 7 8 8 8 8 8 8 8 8 9 9 10 10 11
4 3 1 1 2 3 4 3 3 3 3 4 5 5 6 6 6 5 5 5 5 5 5 6 6 6 6 6 6 6 6 6 6 6 6 7 8 8 8 8 8 8 9 9 8 8 8 9 10
4 3 2 2 2 4 4 4 5 4 4 4 5 5 5 6 6 5 5 5 5 5 5 6 6 7 6 6 6 6 6 6 6 7 7 7 7 8 8 8 8 8 9 9 9 8 9 9 10
4 3 3 4 4 4 5 5 5 5 5 5 5 5 5 5 6 6 5 6 6 6 6 7 6 6 6 5 6 6 6 6 6 6 6 6 7 8 8 8 8 8 8 8 9 9 9 9 10
4 4 4 5 5 5 5 6 6 5 5 5 5 5 5 6 6 6 6 6 6 6 6 6 6 6 6 5 5 5 5 5 5 6 6 6 7 7 8 8 8 8 8 7 8 8 8 9 9
4 4 5 6 5 5 5 5 6 6 5 5 5 5 6 6 6 6 6 6 6 6 6 6 6 6 6 5 5 5 4 4 4 5 5 5 6 7 7 7 7 7 8 8 7 7 7 8 9
3 4 5 5 5 5 5 6 6 6 5 5 5 5 6 6 6 6 7 6 6 6 7 7 6 6 5 5 5 4 4 4 3 3 3 4 4 5 6 6 6 6 7 7 7 7 7 7 7
4 4 4 5 5 6 5 6 6 6 5 5 5 5 5 5 5 6 6 6 6 6 6 7 6 5 5 4 4 4 4 3 3 3 3 3 4 4 5 6 6 7 6 6 7 8 7 7 7
3 4 4 5 5 6 6 6 5 5 6 5 5 5 6 6 6 6 6 6 6 6 6 6 6 5 5 4 3 4 4 3 3 3 3 3 4 4 4 5 5 5 6 6 6 6 6 6 7
3 4 4 5 5 6 6 6 6 6 6 6 6 6 6 7 6 6 6 7 6 6 6 6 6 5 4 4 4 4 3 3 2 3 3 3 3 3 4 3 4 4 4 5 6 6 6 6 7
3 3 3 4 5 6 6 6 7 7 7 6 7 7 6 6 6 6 6 7 6 7 7 6 6 5 5 5 5 4 4 3 3 3 3 3 3 4 4 3 3 4 4 5 5 5 5 5 5
3 3 4 4 5 6 6 6 7 7 7 7 7 6 6 6 5 6 6 6 6 6 7 7 6 6 6 5 5 4 4 4 3 3 3 3 3 3 3 3 3 3 3 4 4 4 4 4 4
4 4 4 4 5 6 6 6 7 7 7 7 7 6 6 6 5 6 6 6 6 7 7 7 7 7 6 6 5 5 5 4 4 4 4 4 4 4 3 3 3 4 4 4 4 4 4 4 4
5 4 4 4 4 5 5 5 5 6 7 7 7 6 6 5 5 5 6 6 6 7 7 7 8 7 6 6 6 6 5 4 4 4 4 4 4 4 4 4 4 4 4 4 4 4 4 4 4
5 4 4 5 5 5 5 5 5 6 7 7 7 6 6 5 5 5 5 5 6 6 6 7 7 7 7 7 6 6 5 5 4 4 4 4 4 4 4 5 5 4 4 4 4 4 4 4 4
6 6 6 5 5 5 6 6 6 6 7 7 7 7 6 6 5 5 5 5 6 6 6 7 7 7 6 6 6 6 5 5 5 5 4 4 4 4 5 5 5 5 4 4 4 5 4 4 4
7 7 7 6 5 5 6 7 6 6 7 6 6 7 7 6 6 6 5 5 6 6 7 7 8 7 7 6 6 5 5 5 5 4 4 4 4 4 4 5 5 5 4 4 4 4 5 4 4
8 7 7 7 7 6 6 6 6 6 7 7 6 6 6 6 6 6 6 6 6 6 6 7 7 7 7 6 6 5 5 5 5 5 4 4 4 4 4 4 4 4 4 4 4 4 5 5 5
9 8 8 8 7 7 7 5 5 6 6 6 6 6 6 6 6 6 6 6 7 7 6 6 7 7 7 6 6 6 5 5 5 5 5 5 4 4 4 4 4 4 5 5 5 5 5 6 6
10 10 9 9 8 8 7 6 5 5 5 6 6 6 6 6 6 6 6 7 7 8 7 7 7 7 7 6 6 6 5 5 5 5 5 5 5 4 4 4 4 5 5 5 5 5 6 6 6
11 11 10 10 9 9 8 7 6 6 6 6 6 6 6 6 6 6 6 7 8 8 7 7 7 7 7 7 6 6 5 5 5 6 6 6 6 5 4 4 5 6 6 5 5 5 6 6 6
12 12 12 12 11 10 10 9 7 6 6 6 6 6 6 6 7 7 7 7 7 8 8 8 7 8 8 7 6 6 6 6 6 6 6 7 7 6 6 6 6 6 6 6 6 6 6 6 7
13 13 13 13 12 11 11 10 8 7 7 7 6 6 6 7 7 7 7 7 7 8 8 8 8 8 8 8 7 7 7 7 7 7 7 8 7 7 6 6 7 7 7 6 6 7 7 7 7
14 14 13 13 14 13 12 11 9 8 8 7 7 7 7 7 7 7 8 8 8 8 8 9 8 8 8 8 8 8 8 8 8 9 9 8 8 7 7 7 7 7 7 7 7 7 8 8 7
15 15 15 14 15 15 14 13 10 9 9 9 9 9 9 8 8 8 9 9 9 9 9 9 9 8 8 9 9 9 8 8 9 9 9 9 9 9 9 8 8 9 9 9 9 9 9 9 8
16 16 16 17 17 16 15 14 12 11 10 10 10 10 10 9 9 9 9 10 10 10 10 10 10 10 9 9 9 9 9 10 9 9 9 10 10 10 10 10 10 11 11 11 10 10 10 9 9
18 18 17 18 17 17 16 15 13 13 12 12 12 12 11 10 10 10 10 10 10 10 11 11 11 11 10 10 10 10 10 10 10 10 10 10 11 12 12 12 12 12 12 11 11 11 11 10 10
Wind_Direction
110 111 112 109 104 102 80 57 52 44 23 15 9 351 335 333 331 328 324 316 315 313 312 308 307 304 303 308 299 290 275 265 264 258 256 256 255 249 245 244 247 252 251 246 241 236 230 227 230
92 85 92 101 99 72 47 48 41 28 8 358 350 338 329 327 327 327 320 316 317 313 309 305 302 301 301 306 299 285 271 266 263 256 254 256 259 255 249 245 247 251 251 245 237 234 234 231 230
79 73 62 67 94 52 36 49 26 9 359 351 343 339 335 328 328 326 322 315 315 316 311 309 309 308 307 305 303 293 277 269 264 258 256 259 262 260 251 250 252 254 254 249 240 236 238 239 237
61 49 23 41 40 31 33 29 27 14 352 345 341 340 338 335 334 330 329 323 318 317 313 311 309 312 311 302 294 295 290 275 267 265 262 259 258 251 248 246 251 252 249 253 248 244 241 241 237
55 41 47 42 36 41 41 33 32 21 357 345 341 341 344 341 339 339 337 334 334 333 327 322 316 315 316 308 296 295 289 280 273 268 264 262 259 251 247 246 250 254 251 250 250 248 246 243 240
46 34 16 23 32 30 37 36 28 13 356 349 345 347 347 347 348 349 348 348 344 341 334 330 321 317 315 319 314 301 295 289 277 271 270 263 257 250 248 247 250 254 255 253 250 252 252 250 248
50 33 20 35 36 33 36 28 19 9 358 354 355 353 354 352 353 352 351 350 348 347 339 329 322 319 320 319 317 311 302 293 281 275 271 265 261 257 251 247 249 255 257 256 253 254 253 254 254
40 31 25 38 38 34 31 23 16 10 0 0 3 357 355 356 354 348 348 352 350 353 347 338 331 328 329 326 324 320 315 302 284 277 274 273 268 261 253 253 256 256 258 260 256 255 254 254 257
31 24 25 34 35 32 30 22 12 9 1 360 3 359 357 357 355 356 359 359 358 359 355 348 345 339 334 335 333 326 326 319 303 288 276 274 272 264 252 253 253 254 254 254 253 252 257 257 257
23 21 22 28 30 26 23 16 9 10 10 2 1 359 359 359 2 2 1 359 359 357 353 349 347 343 337 338 338 334 333 329 328 312 288 280 281 274 257 252 251 254 252 252 251 251 253 255 255
15 16 17 22 24 20 13 10 6 5 4 2 2 360 357 0 3 2 360 357 357 355 352 349 348 347 348 350 342 338 337 339 345 337 312 305 299 290 271 259 256 257 256 257 257 258 259 253 251
2 4 8 11 14 10 5 6 4 5 2 1 1 355 354 358 358 356 354 355 355 355 353 351 353 359 359 3 348 343 341 342 347 355 343 326 308 298 290 274 271 262 260 261 259 264 256 252 252
346 355 359 2 7 10 5 1 4 4 4 0 2 358 355 354 351 355 358 355 352 356 355 349 351 352 351 351 351 354 350 351 348 347 341 329 310 305 311 288 271 266 266 263 261 267 260 254 257
327 339 346 355 360 5 4 2 359 5 9 6 2 356 352 350 354 0 359 355 353 356 357 353 352 349 347 345 342 337 330 333 331 326 323 324 314 305 303 301 282 276 275 270 269 264 257 256 262
296 311 329 344 351 355 354 0 0 360 3 5 5 0 352 349 352 356 357 354 351 354 355 352 358 357 351 349 350 341 329 323 320 317 316 312 314 315 303 302 284 277 278 280 278 272 261 259 260
286 300 314 333 344 348 349 358 359 359 359 0 1 358 353 351 353 348 347 349 351 351 351 351 355 354 352 350 351 342 330 322 318 313 310 308 305 305 297 292 290 282 282 278 271 268 264 255 257
277 285 299 313 330 337 338 349 356 1 2 0 358 354 354 350 349 348 349 351 349 350 351 351 356 353 355 350 347 339 336 328 317 310 305 301 300 298 294 290 294 292 287 286 273 266 262 258 259
272 273 288 300 317 326 330 342 349 356 357 357 357 352 350 346 344 344 347 348 344 341 348 352 357 350 348 346 339 341 338 337 334 321 310 304 297 291 291 291 293 292 285 287 280 269 264 265 265
267 270 285 299 312 314 321 330 337 344 347 349 352 355 355 351 347 346 344 343 341 335 341 340 346 346 342 339 338 341 342 340 334 325 314 303 294 295 300 296 295 291 287 290 286 283 270 267 265
271 272 282 293 304 306 316 324 328 338 341 344 352 354 357 357 352 348 341 339 337 333 335 338 341 345 345 337 336 337 343 341 338 335 323 313 306 306 306 295 295 295 291 289 284 279 271 269 266
270 275 282 291 297 301 307 315 321 330 333 337 347 352 349 350 352 350 348 344 342 336 332 334 338 340 344 342 335 333 338 341 343 346 346 334 319 319 311 300 298 296 293 290 286 280 269 263 265
265 270 275 284 294 302 303 306 317 326 328 331 340 345 344 341 344 343 339 342 341 337 335 335 337 339 345 345 344 341 337 340 342 340 342 335 325 314 308 300 299 298 296 291 284 280 272 265 265
264 267 271 277 286 295 298 299 311 321 321 325 329 339 343 339 336 334 333 338 337 335 334 336 337 335 339 339 339 339 337 338 339 337 335 331 324 317 303 294 295 295 295 294 285 279 276 271 273
259 263 266 274 278 284 291 295 306 313 317 319 324 332 336 332 327 322 322 327 331 331 328 327 329 330 331 331 334 337 332 329 330 333 333 331 327 315 301 294 292 292 292 291 285 279 279 275 278
255 259 262 271 276 283 284 286 296 296 301 306 317 323 327 323 318 316 315 319 324 326 322 316 318 322 324 325 326 329 324 321 323 323 322 322 320 313 302 296 295 294 294 294 293 289 286 283 282
254 255 261 269 277 279 280 283 288 288 291 293 303 309 312 315 310 308 310 314 320 321 321 316 312 313 317 319 316 317 317 315 314 312 312 315 314 311 301 294 292 292 292 293 296 291 287 287 285
251 253 258 264 271 274 275 278 281 281 287 290 294 297 299 305 304 300 300 305 314 318 319 319 312 309 310 312 311 307 308 308 306 305 306 308 307 303 298 294 293 292 289 287 287 288 288 287 283
250 254 257 260 264 268 272 272 277 280 281 286 289 293 295 296 297 298 298 300 307 311 311 312 312 308 305 307 309 307 304 305 303 302 300 302 303 300 294 291 291 292 290 287 285 283 282 281 279
249 251 256 258 261 264 267 270 273 272 275 278 283 287 293 293 292 291 295 298 301 304 303 304 306 307 305 305 306 304 301 302 303 301 297 294 294 296 292 289 288 288 288 288 285 282 283 282 279
251 253 256 259 262 264 265 267 270 270 269 272 277 282 287 290 290 290 291 295 296 297 299 300 302 304 302 301 302 302 301 301 301 301 297 292 291 292 291 287 284 286 286 285 282 281 280 280 279
Height
5890 5890 5890 5891 5891 5891 5889 5889 5889 5888 5888 5888 5887 5886 5886 5885 5885 5886 5883 5881 5880 5879 5879 5878 5877 5877 5876 5876 5875 5874 5874 5874 5874 5874 5874 5874 5873 5874 5874 5874 5874 5873 5873 5873 5873 5873 5873 5874 5874
5890 5890 5891 5891 5890 5890 5890 5889 5888 5888 5888 5887 5887 5886 5885 5884 5884 5883 5881 5880 5879 5878 5877 5877 5876 5875 5875 5875 5874 5873 5873 5873 5872 5872 5872 5872 5872 5872 5872 5872 5872 5871 5871 5872 5872 5872 5872 5872 5873
5890 5891 5892 5891 5890 5890 5890 5889 5888 5888 5887 5887 5886 5885 5885 5884 5883 5882 5880 5879 5878 5877 5876 5876 5875 5874 5874 5873 5873 5872 5872 5871 5871 5871 5871 5871 5871 5871 5870 5870 5870 5870 5870 5870 5870 5870 5871 5871 5871
5891 5892 5892 5891 5890 5890 5889 5888 5888 5887 5887 5886 5886 5885 5883 5883 5882 5881 5879 5878 5877 5876 5875 5874 5874 5873 5873 5872 5872 5871 5871 5870 5870 5870 5870 5870 5869 5869 5869 5869 5869 5869 5868 5868 5868 5868 5869 5869 5870
5892 5892 5892 5891 5890 5890 5889 5888 5887 5887 5886 5885 5885 5884 5883 5882 5881 5879 5878 5877 5876 5875 5874 5873 5873 5872 5871 5871 5870 5869 5869 5869 5869 5868 5868 5868 5868 5868 5868 5868 5868 5867 5867 5867 5867 5867 5867 5867 5868
5893 5893 5892 5891 5890 5890 5889 5888 5887 5887 5886 5885 5884 5883 5882 5881 5880 5879 5877 5876 5875 5874 5873 5872 5872 5871 5870 5869 5869 5868 5868 5867 5867 5867 5867 5866 5866 5866 5866 5866 5866 5866 5866 5865 5865 5865 5866 5866 5866
5894 5893 5892 5891 5890 5889 5889 5888 5887 5886 5885 5884 5884 5883 5882 5881 5879 5878 5877 5876 5874 5874 5873 5871 5870 5870 5869 5868 5867 5867 5866 5866 5865 5865 5865 5865 5865 5864 5864 5864 5864 5864 5863 5863 5863 5863 5863 5863 5864
5893 5893 5892 5891 5890 5889 5889 5887 5886 5886 5885 5884 5883 5882 5881 5880 5879 5878 5876 5875 5874 5873 5872 5871 5870 5869 5868 5867 5866 5866 5865 5864 5864 5863 5863 5863 5863 5863 5863 5862 5862 5862 5861 5861 5861 5861 5861 5861 5861
5893 5894 5892 5891 5890 5889 5888 5887 5886 5885 5884 5883 5882 5881 5881 5879 5878 5877 5876 5875 5874 5873 5872 5870 5869 5868 5867 5866 5865 5864 5864 5863 5862 5862 5861 5861 5861 5861 5861 5860 5860 5860 5860 5859 5859 5859 5859 5859 5859
5894 5893 5892 5891 5890 5889 5888 5887 5886 5885 5884 5883 5882 5881 5880 5879 5877 5876 5876 5875 5874 5872 5871 5870 5869 5867 5866 5865 5864 5863 5862 5862 5861 5860 5860 5860 5859 5859 5859 5859 5858 5858 5858 5857 5857 5857 5857 5857 5857
5893 5893 5892 5891 5890 5889 5888 5887 5886 5884 5884 5883 5881 5880 5879 5878 5877 5876 5875 5874 5873 5872 5871 5869 5868 5867 5865 5864 5863 5862 5861 5861 5860 5860 5859 5859 5858 5857 5857 5857 5856 5856 5856 5856 5856 5855 5855 5855 5855
5893 5892 5891 5890 5889 5888 5887 5886 5885 5884 5883 5882 5880 5879 5878 5878 5877 5876 5875 5874 5873 5872 5870 5868 5867 5866 5865 5864 5863 5862 5861 5860 5860 5859 5858 5858 5857 5856 5856 5855 5855 5855 5854 5854 5854 5853 5853 5854 5853
5893 5892 5891 5890 5889 5888 5887 5886 5885 5883 5882 5881 5879 5878 5877 5877 5876 5875 5874 5872 5872 5871 5869 5868 5866 5865 5864 5863 5862 5861 5860 5859 5859 5858 5858 5857 5856 5855 5855 5854 5854 5853 5853 5853 5852 5852 5852 5852 5851
5892 5892 5891 5890 5889 5888 5887 5886 5885 5883 5882 5880 5879 5878 5877 5876 5875 5874 5873 5872 5871 5870 5868 5867 5865 5864 5863 5862 5861 5860 5860 5859 5858 5858 5857 5856 5855 5855 5854 5853 5853 5852 5852 5851 5851 5851 5850 5850 5850
5891 5891 5891 5889 5888 5887 5887 5886 5884 5883 5881 5880 5879 5878 5876 5875 5874 5874 5873 5872 5870 5869 5868 5866 5865 5863 5862 5861 5860 5859 5859 5858 5857 5857 5856 5855 5855 5854 5853 5852 5852 5851 5851 5850 5850 5849 5849 5849 5849
5891 5891 5890 5889 5888 5887 5887 5885 5884 5882 5881 5879 5878 5877 5876 5875 5874 5873 5872 5871 5870 5868 5867 5866 5864 5863 5861 5860 5859 5858 5857 5857 5856 5855 5855 5854 5853 5853 5852 5852 5851 5850 5850 5849 5849 5848 5848 5848 5848
5890 5889 5888 5888 5887 5886 5886 5884 5883 5882 5880 5879 5877 5876 5875 5874 5873 5872 5871 5870 5869 5868 5866 5865 5863 5862 5861 5860 5859 5857 5856 5856 5855 5854 5853 5853 5852 5851 5851 5851 5850 5849 5849 5848 5848 5847 5847 5847 5847
5889 5888 5887 5886 5886 5885 5884 5883 5882 5881 5880 5878 5877 5876 5874 5873 5873 5872 5871 5869 5868 5867 5865 5864 5863 5861 5860 5859 5858 5857 5856 5854 5854 5853 5852 5851 5851 5850 5850 5849 5849 5848 5848 5847 5847 5846 5846 5846 5845
5887 5886 5886 5885 5884 5884 5883 5882 5881 5880 5879 5877 5876 5875 5873 5872 5871 5871 5870 5868 5867 5866 5864 5863 5862 5861 5859 5858 5857 5856 5855 5853 5852 5851 5851 5850 5849 5849 5848 5848 5848 5847 5847 5846 5845 5845 5845 5844 5844
5885 5884 5884 5884 5883 5882 5881 5881 5880 5878 5877 5876 5875 5873 5873 5871 5870 5869 5868 5867 5866 5865 5863 5862 5861 5860 5858 5857 5856 5855 5854 5852 5851 5850 5849 5849 5848 5848 5847 5847 5846 5846 5845 5845 5844 5844 5844 5843 5843
5883 5883 5882 5882 5881 5881 5880 5880 5878 5877 5876 5874 5873 5872 5871 5870 5869 5868 5867 5866 5865 5864 5862 5861 5860 5859 5857 5856 5855 5854 5853 5852 5851 5850 5849 5848 5847 5846 5846 5845 5845 5844 5844 5844 5843 5843 5842 5842 5842
5880 5881 5880 5880 5879 5879 5879 5878 5877 5876 5875 5873 5872 5871 5870 5869 5868 5867 5866 5865 5864 5863 5861 5860 5859 5857 5856 5855 5854 5853 5852 5851 5850 5849 5848 5847 5846 5845 5845 5844 5844 5844 5843 5843 5842 5842 5841 5841 5840
5878 5878 5878 5877 5877 5877 5876 5876 5876 5875 5873 5872 5871 5870 5869 5868 5867 5866 5865 5864 5863 5862 5860 5859 5858 5856 5855 5854 5853 5852 5851 5850 5849 5848 5847 5846 5845 5844 5843 5843 5843 5842 5842 5841 5841 5840 5840 5839 5839
5875 5876 5875 5875 5875 5875 5874 5874 5874 5873 5872 5870 5869 5868 5868 5867 5866 5865 5864 5863 5862 5861 5859 5858 5857 5856 5854 5853 5852 5851 5850 5849 5848 5847 5846 5845 5844 5843 5842 5842 5841 5841 5840 5840 5839 5839 5838 5838 5837
5872 5873 5873 5872 5872 5873 5872 5871 5872 5871 5870 5869 5868 5867 5866 5865 5864 5863 5863 5861 5860 5859 5858 5857 5855 5854 5853 5852 5851 5850 5849 5848 5847 5846 5845 5844 5843 5842 5841 5840 5840 5839 5839 5838 5838 5837 5837 5836 5836
5869 5870 5871 5870 5870 5870 5869 5868 5869 5868 5867 5867 5866 5865 5865 5864 5863 5862 5861 5860 5859 5858 5856 5855 5854 5853 5852 5850 5849 5848 5847 5846 5845 5844 5843 5842 5841 5840 5839 5839 5838 5838 5837 5837 5836 5835 5835 5834 5834
5865 5866 5867 5867 5866 5866 5865 5866 5866 5865 5865 5864 5864 5863 5863 5862 5861 5860 5859 5858 5857 5856 5855 5853 5852 5851 5850 5849 5848 5846 5845 5844 5843 5842 5841 5840 5839 5838 5838 5837 5836 5836 5835 5835 5834 5833 5833 5832 5832
5862 5862 5862 5862 5862 5862 5862 5862 5863 5863 5862 5862 5862 5861 5860 5860 5859 5858 5857 5856 5855 5854 5853 5852 5851 5849 5848 5847 5845 5844 5843 5842 5841 5840 5839 5838 5837 5836 5835 5835 5834 5833 5833 5832 5832 5831 5830 5830 5829
5857 5858 5858 5858 5858 5859 5858 5861 5860 5860 5859 5859 5859 5858 5858 5857 5856 5855 5855 5854 5853 5852 5851 5850 5849 5847 5846 5845 5844 5842 5841 5840 5839 5837 5836 5835 5834 5833 5833 5832 5831 5830 5830 5829 5829 5828 5827 5827 5827
5852 5853 5853 5854 5854 5854 5855 5859 5856 5856 5856 5855 5855 5855 5855 5854 5853 5853 5852 5851 5850 5849 5848 5847 5846 5845 5844 5842 5841 5840 5838 5837 5836 5834 5833 5832 5831 5830 5829 5828 5828 5827 5826 5826 5825 5825 5824 5824 5824